Miscellaneous Local Product
Issued by NWS North Platte, NE

Home | Current Version | Previous Version | Text Only | Print | Product List | Glossary On
Versions: 1 2 3 4 5 6 7 8 9 10 11 12 13 14 15 16 17 18 19 20 21 22 23 24 25 26 27 28 29 30 31 32 33 34 35 36 37 38 39 40 41 42 43 44 45 46 47 48 49 50
000
AXUS43 KLBF 141310
MISLBF


WESTERN AND NORTH CENTRAL NEBRASKA HOURLY WEATHER ROUNDUP
NATIONAL WEATHER SERVICE NORTH PLATTE NE
700 AM CST THU DEC 14 2017

NOTE: "FAIR" INDICATES FEW OR NO CLOUDS BELOW 12,000 FEET WITH NO
SIGNIFICANT WEATHER AND/OR OBSTRUCTIONS TO VISIBILITY.

NOTE: STATIONS NOT REPORTING VARIABLES SUCH AS SKY/WEATHER OR
PRESSURE ARE PROVIDED BY RAWS AND APRS NETWORKS AND ARE NOT UNDER
NATIONAL WEATHER SERVICE QUALITY CONTROL.

...OBSERVATIONS IN AND NEAR THE EASTERN PANHANDLE OF NEBRASKA...

CITY           SKY/WX    TMP DP  RH WIND       PRES   REMARKS
PINE RIDGE     FLURRIES  35  29  78 NW8       30.08R WCI  29
GORDON         CLOUDY    34  29  81 NW15G22   30.05S WCI  24
CHADRON        CLOUDY    38  24  57 NW24G33   30.10S WCI  27
ALLIANCE       CLOUDY    32  23  69 W14       30.08F WCI  22
SIDNEY         PTCLDY    29  21  72 NW12      30.12S WCI  19
CRESCENT LAKE    N/A     33  23  66 W9          N/A  WCI  25
$$

...OBSERVATIONS IN NORTHERN NEBRASKA AND FAR SOUTHERN SOUTH DAKOTA...

CITY           SKY/WX    TMP DP  RH WIND       PRES   REMARKS
WINNER         LGT RAIN  37  34  89 NW15      30.02R WCI  28
VALENTINE      FLURRIES  35  33  92 W10       30.04S WCI  27
THEDFORD       FLURRIES  35  33  90 NW10      30.07R WCI  27
AINSWORTH      LGT SNOW  35  33  94 NW14      30.03R WCI  25
O`NEILL        CLOUDY    28  26  89 W6        30.03R WCI  22
ORD            CLOUDY    30  25  81 CALM      30.03S
BROKEN BOW     CLOUDY    36  31  82 NW12      30.05R WCI  28
VALENTINE NWR    N/A     33  31  94 NW12        N/A  WCI  24
HALSEY           N/A     34  31  90 NW9         N/A  WCI  27
BUTTE            N/A     27  24  86 CALM        N/A
CHAMBERS         N/A     32  26  77 CALM        N/A
EWING            N/A     29  25  85 W3          N/A
$$

...OBSERVATIONS IN SOUTHWEST NEBRASKA AND FAR NORTHEAST COLORADO...

CITY           SKY/WX    TMP DP  RH WIND       PRES   REMARKS
WRAY           PTSUNNY   34  30  86 W12       30.15S WCI  25
HOLYOKE        FAIR      37  30  75 NW10      30.14R WCI  30
IMPERIAL       CLOUDY    36  27  69 NW13      30.13R WCI  27
OGALLALA       CLOUDY    37  26  66 NW9       30.11S WCI  30
NORTH PLATTE   CLOUDY    37  26  64 W9        30.09R WCI  30
MCCOOK         CLOUDY    38  27  64 W12       30.11S WCI  30
LEXINGTON      MOCLDY    36  27  68 NW10      30.08R WCI  29
STAPLETON        N/A     35  28  76 CALM        N/A
GOTHENBURG       N/A     38  28  67 W7          N/A  WCI  33
CALLAWAY         N/A     35  31  87 NW14        N/A  WCI  26
$$

...OBSERVATIONS IN CENTRAL LINCOLN COUNTY AREA...

CITY           SKY/WX    TMP DP  RH WIND       PRES   REMARKS
N.P. AIRPORT   CLOUDY    37  26  64 W9        30.09R WCI  30
N.P. DOWNTOWN    N/A     36  26  66 W3          N/A
N.P. SOUTHEAST   N/A     37  26  64 W5G12       N/A  WCI  33
N.P. HILLCREST   N/A     36  27  69 W6          N/A  WCI  31
$$

...SOME OBSERVATIONS FROM AROUND THE REGION...

CITY           SKY/WX    TMP DP  RH WIND       PRES   REMARKS
DENVER         CLOUDY    28  25  88 SW7       30.19S WCI  21
GRAND JUNCTION CLEAR     35  25  66 N8        30.16R WCI  29
LARAMIE        CLOUDY    22  21  96 NW9       30.16R WCI  12
CHEYENNE       CLOUDY    28  22  78 W8        30.14S WCI  20
CASPER         CLOUDY    28  23  81 W7        30.22R WCI  21
BISMARCK       CLOUDY    34  30  85 NW13G22   30.02R WCI  25
RAPID CITY     MOCLDY    35  24  64 NW44G55   30.08R WCI  19
PIERRE         LGT RAIN  36  34  92 NW10      30.01R WCI  28
SIOUX FALLS    CLOUDY    28  27  96 E5        30.00R WCI  23
OMAHA          CLOUDY    34  26  72 CALM      30.05R
GRAND ISLAND   PTCLDY    29  25  85 W7        30.07R WCI  22
SCOTTSBLUFF    CLOUDY    35  24  64 W13       30.13S WCI  26
KANSAS CITY    CLOUDY    35  23  61 N3        30.05R
HILL CITY      CLOUDY    35  24  64 W9        30.13S WCI  28
WICHITA        CLOUDY    37  27  67 N10       30.11R WCI  30
DODGE CITY     CLOUDY    37  21  52 NW9       30.13R WCI  30
OKLAHOMA CITY  CLOUDY    42  27  55 N13       30.06R
DALLAS         PTCLDY    44  30  57 N13       29.96R
AMARILLO       CLOUDY    25  16  68 N9        30.12R WCI  15
$$




USA.gov is the U.S. government's official web portal to all federal, state and local government web resources and services.